GEFSCGP_con_prob3kmehi_216.txt.gz
EHI
0 0 0 0 0 0 0 0 0 0 0 0 0 2 7 10 11 15 20 29 39 46 52 58 60 60 66 74 77 73 68 65 57 47 40 34 29 29 27 27 32 31 24 20
0 0 0 0 0 0 0 0 0 0 0 0 0 2 7 9 11 14 21 30 40 48 56 64 67 68 72 78 80 77 73 69 61 52 45 39 35 32 29 32 38 36 28 24
0 0 0 0 0 0 0 0 0 0 0 0 1 3 5 6 8 12 19 28 39 48 61 73 78 77 78 82 83 81 79 76 69 61 52 47 43 37 32 37 44 42 34 28
0 0 0 0 0 0 0 0 0 0 0 0 1 2 3 4 6 9 13 22 32 44 61 77 83 83 81 83 85 85 85 82 77 68 59 53 49 43 39 41 45 44 36 31
0 0 0 0 0 0 0 0 0 0 0 0 0 1 1 3 6 7 9 16 27 40 59 75 82 83 82 81 84 88 89 87 83 75 67 60 53 47 43 44 45 44 37 32
0 0 0 0 0 0 0 0 0 0 0 0 0 0 0 2 3 4 6 14 25 38 54 69 77 82 83 82 83 88 91 89 86 80 74 67 58 49 44 43 44 42 36 34
0 0 0 0 0 0 0 0 0 0 0 0 0 0 1 1 1 2 6 13 23 34 46 59 71 79 83 85 86 88 90 89 85 82 77 71 62 52 45 43 42 38 34 34
0 0 0 0 0 0 0 0 0 0 0 0 0 0 1 1 1 2 7 13 22 30 39 52 66 77 82 85 87 88 90 89 85 80 76 71 64 54 47 45 42 37 35 35
0 0 0 0 0 0 0 0 0 0 0 0 0 1 1 2 3 4 9 15 22 27 33 47 64 74 80 83 84 86 88 88 84 78 75 70 64 55 48 45 43 39 37 37
0 0 0 0 0 0 0 0 0 0 0 0 0 1 3 6 7 7 11 18 23 25 29 43 61 71 77 81 82 83 84 83 80 75 70 67 64 57 50 46 44 43 41 39
0 0 0 0 0 0 0 0 0 0 0 0 0 1 4 8 10 11 14 19 23 24 29 42 57 68 74 77 78 81 81 79 75 71 66 63 62 59 54 49 47 47 44 42
0 0 0 0 0 0 0 0 0 0 0 0 1 2 5 8 11 13 17 22 27 29 34 45 57 67 71 71 72 75 77 75 72 67 63 60 58 56 54 51 48 47 45 43
0 0 0 0 0 0 0 0 0 0 0 0 1 2 4 9 13 17 23 29 32 35 42 52 61 67 68 65 65 67 69 69 66 63 61 59 55 53 53 51 49 47 45 43
0 0 0 0 0 0 0 0 0 0 0 0 1 2 6 11 17 22 27 30 32 37 46 57 65 69 67 64 62 62 63 64 62 59 58 58 56 54 51 51 52 50 46 43
0 0 0 0 0 0 0 0 0 0 0 1 3 6 10 15 22 26 27 28 31 36 44 55 65 69 68 66 64 63 64 64 61 57 55 55 55 53 51 50 51 49 45 42
0 0 0 0 0 0 0 0 0 0 1 2 5 9 13 18 25 29 28 28 32 37 43 53 63 66 67 66 66 67 66 62 58 54 52 52 52 51 50 48 47 45 42 40
0 0 0 0 0 0 0 0 0 1 3 6 8 11 13 18 26 30 30 31 34 39 46 54 59 62 64 65 67 66 62 55 51 50 51 52 51 49 47 45 44 43 41 39
1 1 1 0 0 0 0 0 1 4 7 9 11 12 14 17 23 27 30 32 34 39 45 50 52 55 59 63 65 61 53 49 46 46 47 48 48 45 43 41 40 40 39 38
1 1 1 0 0 0 1 2 3 6 8 9 10 12 14 16 19 23 28 32 34 38 41 43 44 47 54 59 60 55 49 47 45 43 42 41 41 42 41 40 39 38 36 36
0 0 0 0 1 2 3 4 5 6 7 7 8 12 15 17 21 27 31 33 36 39 40 40 41 45 52 55 53 51 49 48 45 42 39 37 38 40 41 40 39 37 35 34
1 0 0 0 1 4 6 7 7 10 11 11 11 14 16 20 27 33 35 36 40 43 42 41 43 48 51 49 46 45 44 44 42 38 37 37 37 38 37 35 34 32 30 29
1 0 0 0 3 8 12 13 15 20 21 18 17 17 18 22 26 32 35 36 40 44 45 46 48 50 48 43 40 39 37 36 35 35 35 35 33 31 29 28 27 24 22 21
1 1 1 2 5 11 16 18 20 23 24 21 19 18 19 22 25 29 33 36 39 42 44 47 47 46 43 39 38 37 34 32 34 35 35 31 28 25 23 22 20 17 14 13
3 3 4 4 5 9 13 15 16 18 21 19 17 17 19 23 27 30 33 36 37 38 39 41 42 40 39 38 38 37 36 34 36 36 33 27 23 22 20 16 13 9 7 7
6 6 6 7 7 8 10 10 11 16 19 19 17 17 20 23 27 30 31 32 34 35 35 36 36 36 37 37 37 36 35 34 34 34 29 22 18 19 17 12 7 4 3 3
7 8 9 10 11 11 10 9 10 15 19 19 18 18 19 22 26 28 27 28 31 33 34 35 34 35 36 37 36 34 33 33 32 31 26 19 16 17 16 11 5 2 2 2

GEFSCGP_con_prob3kmehi_222.txt.gz
EHI
0 0 0 0 0 0 0 0 0 0 0 1 4 9 17 21 21 23 26 28 28 30 36 45 51 52 50 48 46 44 42 38 33 25 16 8 4 2 1 1 1 2 2 1
0 0 0 0 0 0 0 0 0 0 1 2 4 8 15 19 20 22 27 30 30 31 38 48 52 52 50 48 48 47 45 40 34 27 20 12 6 3 1 0 0 1 1 2
0 0 0 0 0 0 0 0 0 0 1 2 4 5 9 13 17 21 27 31 31 32 42 51 54 53 52 50 49 48 46 43 38 33 29 22 12 6 3 1 1 1 1 2
0 0 0 0 0 0 0 0 0 0 1 1 2 2 4 8 13 18 24 30 31 34 43 53 55 56 55 53 51 48 48 47 45 41 37 28 18 10 6 3 3 3 3 3
0 0 0 0 0 0 0 0 0 0 0 0 0 0 2 5 10 14 19 25 32 36 41 49 55 58 58 56 54 51 51 52 51 47 39 28 19 13 9 6 5 5 5 5
0 0 0 0 0 0 0 0 0 0 0 0 0 0 1 3 7 10 13 20 30 36 37 42 51 58 61 60 58 57 56 55 54 49 40 29 21 16 12 9 7 7 8 7
0 0 0 0 0 0 0 0 0 0 0 0 0 0 0 1 3 7 10 15 25 33 36 39 48 57 62 63 63 63 62 59 56 52 43 33 24 18 15 12 10 9 9 8
0 0 0 0 0 0 0 0 0 0 0 0 0 0 0 0 1 5 9 15 21 30 37 43 50 56 60 63 66 67 67 64 60 56 48 38 28 22 17 12 10 9 8 7
0 0 0 0 0 0 0 0 0 0 0 0 0 0 0 1 2 5 11 16 20 29 42 49 52 54 57 61 65 68 67 64 61 58 53 43 33 26 18 12 9 8 7 7
0 0 0 0 0 0 0 0 0 0 0 0 0 0 1 4 6 8 12 15 19 31 45 54 56 55 56 59 64 65 64 62 60 58 55 47 37 27 19 13 10 9 9 9
0 0 0 0 0 0 0 0 0 0 0 0 0 1 2 4 8 10 11 13 18 30 44 55 59 59 57 57 60 60 60 60 60 58 55 48 36 25 18 14 11 11 11 11
0 0 0 0 0 0 0 0 0 0 0 0 0 1 2 4 8 11 12 14 21 30 40 50 57 59 57 56 55 56 56 57 58 57 53 45 34 25 21 17 13 13 13 12
0 0 0 0 0 0 0 0 0 0 0 0 0 0 2 5 9 13 15 19 26 33 39 46 52 54 54 54 53 52 53 54 53 53 48 39 30 26 24 21 18 16 14 12
0 0 0 0 0 0 0 0 0 0 0 0 0 1 3 7 11 14 17 23 29 34 39 44 48 50 51 51 50 48 47 47 46 44 41 34 28 25 25 23 21 19 14 11
0 0 0 0 0 0 0 0 0 0 0 0 1 2 4 8 12 15 19 25 31 35 39 44 46 47 46 47 45 42 39 36 34 35 35 32 27 26 26 26 23 17 13 11
0 0 0 0 0 0 0 0 0 0 0 1 2 3 6 12 16 20 25 30 32 34 38 43 44 42 41 42 41 37 33 28 27 29 31 30 28 27 27 26 22 16 12 11
0 0 0 0 0 0 0 0 1 2 3 4 4 4 9 18 23 25 30 34 34 34 36 40 41 39 38 38 38 35 30 26 25 26 28 30 30 29 26 23 19 15 12 12
0 0 0 0 0 0 0 1 3 6 7 7 6 6 13 21 26 27 30 33 33 32 33 35 37 37 37 38 37 33 29 26 25 25 28 30 30 29 24 19 17 14 12 11
0 0 0 0 0 0 1 2 4 6 9 9 9 11 17 23 26 26 27 28 30 31 31 31 33 35 36 36 34 31 29 26 24 25 27 28 28 25 21 17 15 13 11 8
0 0 0 0 0 1 3 5 5 5 6 7 10 15 19 23 24 24 23 25 29 31 31 31 33 34 31 29 29 29 26 23 20 20 24 26 24 21 17 15 14 12 8 6
1 0 0 0 1 2 4 7 6 4 3 5 9 15 19 20 21 22 23 27 31 32 31 32 33 31 25 23 25 24 21 17 14 14 18 21 21 18 14 12 11 10 8 6
1 0 0 0 1 2 5 7 5 3 3 5 9 14 17 18 20 23 27 30 32 32 33 33 31 27 22 22 23 20 16 14 12 12 14 17 18 18 14 11 9 8 7 6
1 0 1 1 2 4 5 5 5 5 5 7 9 12 16 18 20 24 27 29 30 31 33 32 30 26 24 22 21 18 15 13 13 12 13 16 17 16 14 10 7 5 5 6
0 1 3 4 5 6 7 6 6 9 10 9 9 12 17 20 20 21 22 23 25 26 28 29 27 25 23 22 20 18 16 15 13 13 13 14 15 14 11 7 4 3 4 5
0 1 4 5 5 7 8 7 7 11 13 11 11 13 18 21 20 19 19 18 20 22 23 24 23 21 19 19 19 19 18 15 13 12 11 10 10 9 7 4 2 2 3 3
0 1 4 5 5 6 7 6 7 10 12 12 11 13 18 20 20 19 18 17 17 20 22 22 20 19 17 17 18 18 17 14 11 11 9 8 8 6 4 2 1 1 1 1

GEFSCGP_con_prob3kmehi_228.txt.gz
EHI
0 0 0 0 0 0 0 0 0 0 0 0 0 1 4 10 12 11 10 7 4 3 5 7 9 12 17 19 19 16 14 12 9 5 2 1 1 1 1 2 2 1 0 0
0 0 0 0 0 0 0 0 0 0 0 0 0 0 3 7 9 9 9 8 6 5 6 7 9 11 15 19 22 21 19 18 15 10 5 2 1 1 2 2 1 0 0 0
0 0 0 0 0 0 0 0 0 0 0 0 0 0 1 3 5 6 7 7 9 9 8 9 11 12 16 20 24 25 23 22 20 15 12 10 7 5 3 2 0 0 0 0
0 0 0 0 0 0 0 0 0 0 0 0 0 0 0 1 2 3 4 6 9 10 10 11 14 16 18 22 23 24 24 22 20 20 21 20 14 8 4 2 1 0 0 1
0 0 0 0 0 0 0 0 0 0 0 0 0 0 0 0 1 1 2 3 5 7 9 12 16 19 20 22 23 24 23 21 19 20 24 24 15 7 4 3 1 0 0 1
0 0 0 0 0 0 0 0 0 0 0 0 0 0 0 0 0 0 1 3 4 5 7 12 17 20 22 25 28 28 26 21 17 16 19 19 13 6 4 3 3 1 1 1
0 0 0 0 0 0 0 0 0 0 0 0 0 0 0 0 0 0 2 4 6 7 8 12 17 21 26 31 34 35 32 26 21 19 19 17 13 8 6 5 4 3 2 1
0 0 0 0 0 0 0 0 0 0 0 0 0 0 0 1 1 1 1 3 6 9 10 12 18 25 32 35 38 40 39 35 31 27 24 20 14 10 7 6 5 4 3 3
0 0 0 0 0 0 0 0 0 0 0 0 0 1 1 2 3 3 2 3 6 9 11 13 18 26 33 36 38 41 43 41 37 32 28 24 17 11 9 7 6 5 4 4
0 0 0 0 0 0 0 0 0 0 0 0 0 1 2 4 5 5 4 5 7 9 11 13 17 24 29 32 36 42 44 42 37 33 30 25 19 14 11 9 7 6 5 5
0 0 0 0 0 0 0 0 0 0 0 0 0 1 2 3 6 7 6 6 7 9 11 14 17 22 27 31 36 40 41 39 36 33 30 26 21 16 12 9 6 5 4 4
0 0 0 0 0 0 0 0 0 0 0 0 0 0 1 3 5 6 6 6 8 9 12 15 19 24 28 34 37 37 37 37 35 32 28 26 23 18 12 6 3 3 2 2
0 0 0 0 0 0 0 0 0 0 0 0 0 1 2 3 5 6 6 6 8 11 14 17 21 24 28 33 34 32 33 34 33 30 27 25 23 18 10 3 1 1 1 2
0 0 0 0 0 0 0 0 0 0 0 0 0 1 2 3 4 5 5 6 8 12 15 18 20 23 26 28 29 28 27 30 30 28 26 24 22 16 8 2 0 0 1 2
0 0 0 0 0 0 0 0 0 0 0 0 0 1 2 2 3 4 5 6 8 11 16 20 22 22 23 25 28 27 25 25 26 25 23 21 18 14 8 2 0 0 1 2
0 0 0 0 0 0 0 0 0 0 0 0 0 0 2 3 4 4 5 8 9 12 18 22 22 21 20 22 26 27 23 21 20 20 19 18 16 15 9 3 0 1 2 3
0 0 0 0 0 0 0 0 0 0 0 0 0 2 3 5 6 6 7 10 14 17 20 21 19 16 16 17 21 23 21 19 18 18 18 18 17 16 11 5 2 2 4 5
0 0 0 0 0 0 0 0 0 0 0 0 2 5 6 8 10 9 9 12 17 19 19 18 15 13 12 15 18 19 18 17 18 19 20 20 17 15 12 8 4 3 4 6
0 0 0 0 0 0 0 0 0 0 1 2 5 8 9 11 14 13 12 15 18 18 16 15 13 11 12 15 16 15 15 15 16 19 20 19 16 13 11 9 6 5 5 6
0 0 0 0 0 0 0 0 0 1 2 3 6 8 9 11 13 12 13 17 20 18 17 15 14 13 12 13 13 13 13 14 16 18 18 16 14 12 10 9 8 7 6 6
0 0 0 0 0 0 0 0 0 0 1 3 5 7 7 8 9 12 15 18 20 21 20 19 17 15 14 13 12 12 13 14 16 17 16 14 13 12 10 9 8 7 6 5
0 0 0 0 0 0 0 0 0 0 1 3 5 6 8 9 11 15 18 20 22 23 22 20 18 17 16 15 13 13 12 12 14 15 15 14 13 12 11 10 8 7 7 6
0 0 0 0 0 0 0 0 0 0 1 4 6 7 9 11 14 16 19 21 22 22 21 19 17 17 17 15 14 13 12 12 12 12 13 12 12 12 12 10 8 8 8 7
0 0 0 0 1 1 1 1 0 1 3 6 7 8 8 10 12 13 15 18 19 18 17 16 14 14 13 13 13 13 12 11 10 10 11 11 9 9 10 9 7 6 6 6
0 0 0 0 1 2 2 2 1 2 5 7 9 8 7 7 8 9 11 12 13 13 13 12 11 11 11 11 12 12 11 9 8 7 8 8 7 7 8 7 5 3 3 3
0 0 0 0 1 2 3 3 2 3 6 8 9 8 6 5 6 7 9 10 11 11 10 9 10 11 12 12 12 12 9 8 7 6 6 7 7 6 7 6 4 2 1 1

GEFSCGP_con_prob3kmehi_234.txt.gz
EHI
0 0 0 0 0 0 0 0 0 0 0 0 0 0 0 1 2 4 5 6 6 5 5 7 9 9 8 10 13 14 13 12 10 7 7 8 9 10 9 8 8 8 7 4
0 0 0 0 0 0 0 0 0 0 0 0 0 0 0 1 2 3 5 7 5 4 6 10 13 12 13 16 17 17 16 15 13 10 7 7 9 11 11 10 10 9 8 6
0 0 0 0 0 0 0 0 0 0 0 0 0 0 0 1 2 4 6 7 5 4 7 14 19 20 20 22 22 20 18 19 19 17 12 10 12 13 13 13 13 12 11 9
0 0 0 0 0 0 0 0 0 0 0 0 0 0 0 1 3 5 7 7 6 6 7 13 20 22 22 21 22 21 21 23 26 25 21 19 19 16 14 14 15 15 13 12
0 0 0 0 0 0 0 0 0 0 0 0 0 0 0 1 3 5 6 6 7 8 8 10 15 18 19 18 19 23 27 31 33 33 29 27 23 18 15 17 18 18 16 14
0 0 0 0 0 0 0 0 0 0 0 0 0 0 0 1 2 2 4 6 8 10 10 10 11 14 17 19 22 27 35 40 40 36 32 30 27 22 20 20 20 19 17 16
0 0 0 0 0 0 0 0 0 0 0 0 0 0 0 0 0 0 1 4 8 10 12 13 13 14 18 23 28 34 40 43 41 37 33 32 30 27 25 23 21 18 16 15
0 0 0 0 0 0 0 0 0 0 0 0 0 0 0 0 0 0 1 3 7 10 12 14 14 14 18 25 32 37 40 41 38 36 35 34 34 31 28 27 22 17 14 12
0 0 0 0 0 0 0 0 0 0 0 0 0 0 0 1 1 1 2 4 7 11 13 13 14 15 17 23 30 37 41 41 37 35 35 36 37 35 32 29 25 19 15 13
0 0 0 0 0 0 0 0 0 0 0 0 0 0 2 4 5 4 5 7 9 12 14 14 15 17 18 22 28 35 40 41 37 34 33 35 38 39 36 33 29 22 18 18
0 0 0 0 0 0 0 0 0 0 0 0 0 0 3 7 7 6 7 10 11 13 15 16 17 19 20 23 29 34 37 40 39 37 37 37 38 38 38 38 33 26 22 21
0 0 0 0 0 0 0 0 0 0 0 0 0 1 4 8 8 7 8 9 12 14 16 20 21 23 26 30 33 35 39 43 45 46 45 43 41 40 39 38 34 29 24 22
0 0 0 0 0 0 0 0 0 0 0 0 0 1 5 8 9 8 7 8 11 15 20 25 28 30 35 40 41 42 46 49 52 53 50 48 47 45 42 37 32 29 25 21
0 0 0 0 0 0 0 0 0 0 0 0 0 1 5 9 10 9 7 7 9 14 22 31 35 37 41 45 46 48 51 52 52 52 50 50 49 46 41 36 31 28 24 19
0 0 0 0 0 0 0 0 0 0 0 0 0 2 5 9 11 9 6 6 7 11 22 34 41 41 43 45 46 49 52 52 51 50 48 47 44 39 35 33 29 25 21 17
0 0 0 0 0 0 0 0 0 0 0 0 0 2 6 10 11 9 6 5 7 12 21 34 41 44 46 47 47 49 51 52 50 49 46 41 34 30 28 27 24 22 19 17
0 0 0 0 0 0 0 0 0 0 0 0 1 4 8 12 12 8 6 7 11 16 23 31 38 45 50 49 48 49 51 51 49 46 41 34 28 27 25 23 22 21 20 18
0 0 0 0 0 0 0 0 0 0 0 1 3 6 10 12 10 7 6 9 14 20 27 31 36 42 47 46 44 46 47 45 42 37 32 29 27 27 26 24 24 23 22 20
0 0 0 0 0 0 0 0 0 0 0 1 4 8 11 11 8 5 7 11 16 24 33 36 36 37 39 39 39 41 41 37 33 28 24 24 27 27 25 25 25 25 23 21
0 0 0 0 0 0 0 0 0 0 0 2 5 8 11 10 8 7 11 15 20 28 36 39 38 36 35 35 37 39 37 32 27 23 19 21 24 25 24 25 25 24 23 21
0 0 0 0 0 0 0 1 1 2 4 6 8 9 11 13 13 14 16 19 24 30 35 38 39 39 36 35 37 35 31 26 22 19 18 20 22 23 24 25 24 22 20 18
0 0 0 0 0 1 3 4 4 5 9 11 11 11 14 17 19 18 18 22 27 32 35 38 40 40 37 35 34 31 25 19 17 17 19 20 22 23 23 23 22 19 16 15
0 0 0 1 2 4 6 6 6 7 11 13 13 14 17 19 19 19 20 25 30 33 36 38 38 38 35 32 30 26 20 15 14 17 19 19 19 20 21 22 20 17 14 13
1 2 2 3 4 5 6 7 7 7 10 13 14 15 17 19 19 19 23 28 31 32 33 34 34 34 33 30 25 21 17 14 13 16 18 17 14 14 17 18 17 15 13 13
3 3 4 6 6 5 6 7 6 7 10 13 14 13 14 16 17 20 25 29 30 29 27 26 28 30 29 25 20 17 16 14 13 14 16 15 12 11 13 13 12 11 11 11
3 3 4 5 6 6 6 6 6 8 11 13 13 12 11 12 14 18 25 29 29 27 23 22 23 25 25 20 16 14 15 14 12 13 15 14 11 10 11 10 9 8 8 7

GEFSCGP_con_prob3kmehi_240.txt.gz
EHI
0 0 0 0 0 0 0 0 0 0 0 1 3 4 6 6 7 9 14 18 20 19 21 24 26 29 39 47 49 44 40 40 39 36 30 25 20 18 20 28 34 32 24 19
0 0 0 0 0 0 0 0 0 0 0 2 3 4 5 5 5 9 15 20 22 22 28 36 36 36 43 51 52 48 44 42 39 35 30 26 22 19 20 28 35 32 25 21
0 0 0 0 0 0 0 0 0 0 0 1 2 4 5 6 5 7 13 19 23 27 36 47 50 47 48 52 54 51 48 47 42 36 31 29 28 24 24 30 37 36 29 26
0 0 0 0 0 0 0 0 0 0 0 1 2 2 4 6 6 6 10 17 23 30 41 52 58 56 51 51 55 57 57 54 49 42 36 35 34 30 29 34 40 41 36 31
0 0 0 0 0 0 0 0 0 0 1 1 1 1 2 5 6 6 10 15 21 28 38 50 58 59 53 49 54 63 66 63 57 51 44 40 36 32 32 37 43 43 38 34
0 0 0 0 0 0 0 0 0 0 0 0 0 0 1 4 7 9 10 13 18 24 31 41 54 60 55 49 53 63 70 68 63 56 49 43 37 34 35 40 43 40 35 32
0 0 0 0 0 0 0 0 0 0 0 0 0 0 2 5 9 11 12 13 16 21 26 34 48 58 58 55 57 64 69 69 66 59 53 47 42 38 38 40 41 38 34 32
0 0 0 0 0 0 0 0 0 0 0 0 0 2 4 7 10 11 12 12 14 19 24 29 40 49 55 59 62 65 68 68 66 62 57 52 47 42 40 41 41 39 37 35
0 0 0 0 0 0 0 0 0 0 0 0 0 2 6 9 10 9 9 8 10 16 21 25 32 43 53 60 65 67 67 67 65 63 60 54 49 45 42 43 44 42 39 37
0 0 0 0 0 0 0 0 0 0 0 0 0 2 7 11 12 10 7 6 8 13 19 25 32 44 55 62 66 68 67 65 63 63 61 57 54 51 48 47 47 45 42 41
0 0 0 0 0 0 0 0 0 0 0 0 0 2 8 14 15 13 9 8 10 13 18 25 32 41 49 55 61 66 67 65 64 64 63 62 61 59 55 52 51 49 46 46
0 0 0 0 0 0 0 0 0 0 0 0 1 3 9 15 16 14 12 13 15 17 20 26 31 33 38 47 55 62 66 67 66 66 65 65 66 64 61 56 54 52 50 48
0 0 0 0 0 0 0 0 0 0 0 0 1 4 9 13 15 15 16 18 20 20 23 30 36 37 41 47 55 61 66 68 67 66 65 66 67 67 63 59 56 53 50 47
0 0 0 0 0 0 0 0 0 0 0 0 0 3 8 14 18 18 18 20 21 21 25 37 48 51 52 54 57 63 67 69 67 65 64 64 65 65 62 59 56 51 46 44
0 0 0 0 0 0 0 0 0 0 0 0 1 5 11 17 21 21 20 19 19 19 26 41 53 58 58 58 60 63 67 68 67 64 63 63 62 60 57 55 53 48 41 38
0 0 0 0 0 0 0 0 0 0 0 1 4 10 16 20 22 22 20 17 17 20 29 41 51 57 59 61 62 63 65 66 66 64 61 61 60 57 53 49 47 44 38 34
0 0 0 0 0 0 0 0 0 1 2 3 8 16 22 23 22 22 20 16 17 22 30 39 48 56 60 62 62 63 64 64 62 59 57 57 57 55 50 46 44 43 38 34
0 0 0 0 0 0 1 1 1 1 3 7 12 20 24 23 21 20 19 18 20 25 32 39 46 52 57 59 61 62 62 59 56 53 51 52 52 52 48 43 42 41 38 35
0 0 0 0 0 0 1 1 1 2 5 9 14 19 21 18 17 19 22 24 28 33 38 41 42 47 53 57 58 59 58 55 51 48 47 46 46 45 41 37 37 38 37 35
1 1 0 0 0 0 0 0 1 3 7 11 17 21 20 17 18 24 29 32 36 41 43 44 44 47 52 54 54 54 54 52 49 46 45 43 40 38 35 33 34 36 35 33
0 0 0 0 0 2 2 3 6 13 19 22 26 28 26 24 25 28 32 35 40 44 45 47 48 50 52 51 49 48 48 47 45 43 42 39 36 33 33 33 33 33 32 30
0 1 1 1 3 7 11 13 20 32 37 34 32 32 32 31 29 30 32 37 41 42 44 47 50 50 50 48 45 43 41 40 39 39 37 35 32 29 30 31 30 28 27 26
2 3 5 6 8 11 17 22 28 37 41 37 30 30 32 32 31 33 37 41 42 41 42 44 47 48 46 44 42 40 37 36 35 34 31 28 26 24 23 24 22 21 21 22
2 4 9 12 11 10 13 17 22 28 31 30 27 27 29 30 32 35 38 41 41 41 42 42 43 44 43 41 40 38 35 32 31 30 27 23 20 17 15 15 14 14 16 19
3 5 11 15 12 8 9 12 16 22 26 26 25 26 26 29 32 33 34 37 38 39 39 39 39 39 39 39 38 35 32 30 30 28 24 20 16 12 10 10 9 9 11 13
4 7 12 15 13 10 11 13 15 20 25 25 24 25 27 30 32 32 32 34 37 38 39 38 36 35 36 36 35 32 30 30 30 27 23 18 14 11 9 9 7 5 6 8

GEFSCGP_con_prob3kmehi_246.txt.gz
EHI
0 0 0 0 0 0 1 2 3 4 4 3 3 3 3 4 7 9 8 7 7 6 8 13 19 24 30 31 27 24 20 16 13 10 8 6 5 5 6 7 8 9 7 6
0 0 0 0 0 1 2 2 2 3 3 2 1 2 3 3 6 9 8 6 6 7 10 16 22 27 33 35 32 29 27 23 18 13 9 7 6 6 6 7 8 9 8 7
0 0 0 0 0 1 1 1 1 2 2 0 0 2 4 5 6 7 7 7 7 9 15 22 28 31 35 38 37 36 35 31 25 19 15 12 10 7 7 8 8 8 8 9
0 0 0 0 0 0 0 0 1 2 1 0 0 1 4 5 5 6 8 9 10 11 17 25 31 34 36 38 40 41 40 35 30 26 23 20 15 10 9 9 9 8 8 9
0 0 0 0 0 0 0 0 1 1 1 0 0 0 2 3 4 6 9 12 11 11 16 24 31 36 38 40 44 46 45 38 32 30 29 27 20 14 12 11 9 8 8 9
0 0 0 0 0 0 0 0 0 0 0 0 0 0 0 2 5 8 12 15 15 13 17 24 32 38 43 46 49 51 50 44 37 34 33 31 27 21 16 13 10 8 9 9
0 0 0 0 0 0 0 0 0 0 0 0 0 0 1 4 8 12 16 20 20 18 20 27 35 42 48 51 53 54 54 50 45 42 38 33 31 27 22 17 14 11 10 9
0 0 0 0 0 0 0 0 0 0 0 0 0 0 1 5 9 14 18 22 24 21 21 29 38 44 48 52 55 56 56 53 51 48 42 35 32 30 26 21 18 16 13 11
0 0 0 0 0 0 0 0 0 0 0 0 0 0 1 4 8 12 16 20 22 19 18 25 35 41 47 51 54 55 57 55 53 51 45 37 33 32 29 25 21 19 17 15
0 0 0 0 0 0 0 0 0 0 0 0 0 0 1 4 9 12 14 16 16 15 15 20 29 38 44 48 48 51 56 57 55 52 47 41 38 37 33 27 22 20 20 19
0 0 0 0 0 0 0 0 0 0 0 0 0 1 2 5 9 13 14 14 13 14 16 20 27 34 39 41 45 49 55 57 56 53 50 48 47 43 37 29 23 20 20 19
0 0 0 0 0 0 0 0 0 0 0 0 1 2 4 6 9 12 13 13 14 16 19 21 25 31 33 37 44 51 53 54 54 54 53 53 51 46 40 33 25 21 20 18
0 0 0 0 0 0 0 0 0 0 0 0 1 3 5 7 9 11 13 14 16 19 21 22 25 29 31 36 44 50 51 51 52 54 56 54 50 47 43 37 29 23 19 18
0 0 0 0 0 0 0 0 0 0 0 0 2 4 6 9 11 13 14 16 19 22 22 22 27 30 32 36 44 49 50 50 52 55 56 54 48 44 41 35 29 24 19 17
0 0 0 0 0 0 0 0 0 0 0 1 3 6 8 11 15 16 17 19 21 21 21 24 30 35 37 40 44 48 50 51 52 54 55 50 42 37 33 28 25 22 18 15
0 0 0 0 0 0 0 0 0 0 1 3 6 9 12 16 19 20 21 21 21 21 24 29 34 40 42 42 43 46 49 50 51 52 51 45 37 30 26 23 21 19 17 15
0 0 0 0 0 0 0 1 1 2 3 6 10 14 17 21 24 23 22 21 21 24 30 34 37 41 42 40 41 44 46 47 48 47 44 39 33 27 25 23 20 19 19 19
0 0 0 0 0 0 1 2 3 4 6 9 14 19 23 27 28 25 21 20 21 26 32 36 37 38 38 37 38 41 43 43 43 41 37 31 28 26 26 25 23 22 23 22
0 0 0 0 0 0 1 3 4 7 10 13 17 20 23 28 30 27 23 21 23 27 31 33 35 36 35 35 36 38 40 40 38 36 31 26 24 24 25 24 24 23 21 18
0 0 0 0 0 0 1 3 5 8 12 15 16 17 18 21 24 24 22 24 26 28 29 31 33 34 34 33 35 37 38 37 34 31 26 22 21 22 22 22 22 20 15 11
0 0 0 0 0 0 3 5 5 6 10 15 16 15 15 15 16 17 20 26 30 30 29 30 32 31 30 30 33 35 34 31 28 25 21 18 19 20 20 20 19 15 10 6
0 0 0 0 0 1 4 7 6 7 12 17 17 14 13 13 14 17 22 29 33 33 31 31 31 29 26 27 29 28 24 21 18 16 14 14 16 18 18 17 16 12 8 6
2 1 1 1 1 2 4 7 8 11 16 18 14 11 10 10 14 19 26 31 35 35 33 32 31 29 27 25 24 21 17 12 9 9 9 10 12 13 13 12 11 9 7 6
5 4 3 3 4 5 6 7 9 13 17 16 13 11 11 10 14 21 26 30 33 33 31 31 31 28 25 22 19 16 13 10 8 8 8 8 9 9 8 8 7 7 6 6
6 6 5 4 5 6 7 8 10 12 14 14 13 13 13 14 16 21 26 29 30 28 25 25 26 23 19 17 14 11 10 9 10 10 8 6 6 6 4 4 4 4 4 4
6 6 6 5 5 5 6 8 9 11 12 12 12 14 15 16 16 19 24 28 29 25 21 20 19 17 16 14 12 10 8 8 9 10 8 5 4 4 3 2 2 1 1 2

GEFSCGP_con_prob3kmehi_252.txt.gz
EHI
0 0 0 0 0 0 0 0 0 0 0 0 0 0 0 1 2 2 1 1 1 0 0 0 1 1 2 2 2 1 1 2 3 4 4 3 1 1 2 3 3 3 3 3
0 0 0 0 0 0 0 0 0 0 0 0 0 0 0 1 2 2 2 2 2 1 0 1 2 3 4 4 4 4 4 4 4 4 4 4 4 3 4 4 3 3 3 3
0 0 0 0 0 0 0 0 0 0 0 0 0 0 0 0 1 1 1 2 3 2 2 2 4 5 6 6 6 6 6 6 5 5 6 8 8 8 7 5 4 3 3 2
0 0 0 0 0 0 0 0 0 0 0 0 0 0 0 0 0 0 0 1 2 3 4 5 7 8 10 10 8 7 7 6 6 9 12 13 12 10 8 6 4 3 2 1
0 0 0 0 0 0 0 0 0 0 0 0 0 0 0 0 0 0 0 0 1 3 5 7 9 11 13 14 12 9 8 7 9 15 20 18 15 12 8 5 3 2 2 1
0 0 0 0 0 0 0 0 0 0 0 0 0 0 0 0 0 0 0 0 0 2 5 8 10 13 15 16 15 11 9 9 12 19 24 23 18 14 10 5 2 1 1 1
0 0 0 0 0 0 0 0 0 0 0 0 0 0 0 0 0 0 0 0 1 2 5 9 11 14 17 17 16 14 13 14 17 22 27 27 23 18 14 9 4 2 2 3
0 0 0 0 0 0 0 0 0 0 0 0 0 0 0 0 0 0 0 1 2 5 7 9 11 13 17 19 19 19 20 20 21 25 29 29 26 23 19 14 9 6 6 6
0 0 0 0 0 0 0 0 0 0 0 0 0 0 0 0 0 1 1 2 4 7 8 8 9 11 15 18 19 21 24 24 23 25 28 27 25 23 21 18 14 10 8 7
0 0 0 0 0 0 0 0 0 0 0 0 0 0 1 1 2 2 3 4 7 9 9 8 8 9 11 14 16 18 21 22 22 24 26 25 22 20 20 18 15 12 10 8
0 0 0 0 0 0 0 0 0 0 0 0 0 0 1 3 4 4 6 8 10 10 9 8 8 8 9 14 16 16 18 22 24 27 28 26 21 18 18 17 16 14 11 9
0 0 0 0 0 0 0 0 0 0 0 0 0 1 3 4 5 7 9 10 11 10 8 7 7 8 11 16 18 18 19 24 27 29 30 29 23 19 18 18 18 17 14 11
0 0 0 0 0 0 0 0 0 0 0 0 1 3 4 5 6 9 11 10 11 11 9 7 8 9 13 18 20 19 21 26 30 32 31 30 25 22 20 18 19 18 14 9
0 0 0 0 0 0 0 0 0 0 0 1 2 4 5 6 7 9 10 12 14 16 13 11 12 13 15 18 20 21 23 28 33 35 34 30 26 23 20 17 16 16 12 7
0 0 0 0 0 0 0 0 0 0 1 2 3 4 5 7 9 10 12 15 19 18 16 15 15 15 15 18 20 22 24 28 33 37 35 30 26 23 19 16 14 14 12 8
0 0 0 0 0 0 0 0 0 0 1 2 3 4 6 9 11 11 14 17 18 17 16 16 17 16 16 19 22 24 25 27 31 34 32 28 24 22 19 16 15 15 13 10
0 0 0 0 0 0 0 0 0 0 1 3 4 6 9 13 14 14 15 17 16 16 17 18 17 17 17 20 23 25 25 26 29 30 29 26 22 20 17 16 16 15 11 9
0 0 0 0 0 0 0 0 0 0 1 3 7 11 16 17 16 15 15 16 15 16 18 18 17 17 18 20 23 26 27 26 26 26 25 23 21 18 16 16 16 14 10 8
0 0 0 0 0 0 0 0 0 0 0 3 9 16 19 18 16 15 15 14 13 14 15 15 14 16 19 21 23 26 27 25 24 21 20 19 17 17 17 17 16 14 11 10
0 0 0 0 0 0 0 0 0 0 0 3 8 13 16 16 15 14 15 14 13 13 14 13 12 14 18 20 21 23 23 21 19 17 14 14 14 14 15 16 15 14 12 12
0 0 0 0 0 0 0 0 0 0 0 3 6 10 11 12 12 14 15 16 15 16 16 13 11 12 14 16 17 18 17 15 14 12 10 10 10 11 13 14 14 13 11 11
0 0 0 0 0 0 1 2 1 0 1 3 6 9 11 13 14 14 16 16 17 18 17 14 10 10 12 13 13 12 12 10 9 7 6 6 7 8 11 13 13 11 10 9
0 0 1 1 1 1 2 3 3 2 3 6 9 12 15 17 17 16 17 16 15 15 14 12 10 10 10 10 9 9 9 8 5 3 2 2 3 6 9 11 11 10 8 7
1 1 2 3 3 3 3 3 5 5 5 7 11 14 16 17 16 16 16 13 10 8 8 9 9 9 8 8 7 8 9 8 5 2 0 0 1 4 7 8 8 7 6 6
2 3 3 3 4 3 2 2 3 5 6 8 10 12 13 13 13 12 11 8 6 4 4 5 6 7 7 7 6 7 8 8 5 2 1 0 0 2 5 5 5 4 4 4
3 3 3 2 3 2 1 0 1 3 6 8 10 10 10 10 9 8 6 5 4 3 2 3 5 6 6 6 6 7 7 7 5 3 2 1 1 2 4 4 2 1 1 2